Wind_Speed
37 33 32 33 35 31 41 41 41 37 23 26 21 25 30 29 22 26 24 19 11 12 10 5 4 5 3 4 8 10 13 18
36 41 42 40 31 38 43 44 39 34 26 19 18 20 27 27 25 26 23 24 22 14 13 9 8 12 8 5 6 8 7 9
46 49 42 40 42 42 43 43 39 36 24 20 15 18 28 30 24 26 31 29 24 19 14 13 15 14 11 11 11 8 8 8
54 49 45 45 45 46 47 38 35 34 23 18 11 16 25 30 30 30 27 25 27 25 22 20 19 19 13 14 13 11 12 10
57 55 56 57 52 50 47 45 46 42 25 23 13 14 24 34 37 34 34 29 29 29 28 30 23 22 21 19 15 13 14 12
64 58 60 59 57 56 53 54 46 46 31 23 24 19 21 28 39 42 39 34 34 32 32 31 30 26 23 21 21 18 17 14
69 65 63 61 61 60 59 55 53 42 39 30 25 25 26 28 30 38 40 41 39 38 35 36 34 33 29 27 26 23 19 19
73 71 67 65 62 62 61 59 58 48 47 39 31 28 31 32 34 32 31 37 40 38 37 37 34 33 28 27 31 27 22 18
79 76 74 72 64 64 65 63 58 53 46 41 35 33 35 38 38 36 33 31 34 41 42 41 36 38 33 30 32 39 27 24
85 80 80 76 68 67 68 64 61 57 49 47 44 38 38 39 41 43 39 36 36 37 41 43 39 39 37 34 26 15 29 31
92 88 84 81 79 72 69 67 64 64 57 51 49 46 42 42 43 43 45 41 40 37 41 42 38 37 36 36 24 19 25 31
95 94 91 87 81 77 74 71 67 66 61 55 55 54 47 42 42 44 41 45 45 40 37 44 44 43 43 38 32 30 26 36
95 98 97 92 87 83 80 72 67 65 62 59 57 54 50 45 41 40 39 43 45 42 38 43 49 49 44 42 44 29 33 39
99 99 104 94 90 87 84 77 71 69 62 59 58 51 45 48 43 38 40 40 41 41 44 45 45 45 44 43 35 34 36 40
96 109 97 93 88 84 84 82 77 71 65 58 55 52 42 42 43 36 35 39 39 41 43 47 47 48 46 43 40 43 43 39
80 97 101 99 85 80 79 72 74 66 68 63 57 51 51 44 43 37 38 36 38 41 43 44 54 50 51 52 51 50 53 48
58 75 89 94 91 71 65 57 45 37 44 57 57 54 51 45 47 45 43 43 37 39 40 40 38 42 52 57 57 54 54 53
41 46 63 70 67 79 46 41 42 40 40 40 43 47 45 48 48 52 51 48 42 41 45 46 46 46 44 46 47 47 47 49
45 46 41 53 53 47 73 49 46 45 47 43 43 49 46 46 46 44 44 48 50 46 45 48 50 49 48 49 54 52 55 53
Wind_Direction
228 230 235 234 233 239 237 243 250 257 250 249 231 213 198 189 189 198 197 192 192 193 182 215 153 224 205 254 230 226 233 238
226 231 230 231 229 234 236 240 248 255 255 254 236 221 218 217 217 214 202 186 169 163 166 157 213 233 198 231 229 226 229 248
227 233 232 231 232 231 232 239 246 257 255 257 251 223 220 226 224 219 193 186 180 185 192 195 210 232 225 239 256 236 239 247
234 231 229 228 228 238 244 243 252 255 249 253 226 215 212 218 223 209 212 204 195 194 209 217 212 232 256 259 252 241 253 259
234 229 228 231 232 232 235 236 237 243 233 242 247 218 212 211 216 223 228 227 224 210 213 229 215 213 236 256 251 247 255 262
234 231 232 232 234 236 233 238 240 241 239 222 229 226 219 217 221 227 227 228 232 233 219 226 227 223 219 233 241 246 255 259
233 233 234 234 235 237 240 241 243 246 244 226 217 219 225 230 223 229 230 234 234 236 238 233 242 236 235 231 239 243 248 252
234 234 234 233 234 237 240 240 246 245 244 237 220 215 224 232 239 236 231 234 239 234 232 238 242 248 257 258 238 236 248 249
235 236 235 233 230 235 239 243 245 243 247 244 227 221 226 232 239 242 244 242 239 238 236 241 246 249 255 250 255 250 236 240
233 234 235 235 232 232 236 239 244 246 239 242 237 220 223 231 237 242 243 242 244 247 246 245 250 250 255 259 261 270 246 236
231 231 233 236 234 233 233 235 239 243 242 241 242 236 225 223 233 240 245 246 242 242 247 251 253 258 263 252 258 261 259 238
227 232 231 232 236 236 235 232 236 238 241 240 243 242 237 223 228 237 243 247 248 248 245 246 253 256 259 264 262 274 265 242
227 230 230 230 231 234 235 232 232 238 239 242 239 245 252 244 234 234 238 248 253 253 252 246 245 250 255 261 264 265 250 249
227 230 232 229 231 232 235 235 233 234 238 241 246 243 246 250 249 238 238 242 249 252 249 250 250 252 253 254 251 244 240 244
231 227 234 234 231 232 234 237 239 236 235 237 239 247 247 249 250 241 233 237 240 247 244 247 245 243 243 245 247 244 247 244
237 227 230 233 231 230 235 239 240 243 239 237 236 242 244 241 241 241 240 241 239 240 243 243 241 242 241 244 247 246 245 241
232 234 232 232 232 227 231 233 241 241 242 244 244 243 237 236 235 240 245 252 246 241 243 243 248 250 248 247 248 250 254 259
221 224 232 230 235 229 211 211 220 225 226 222 229 235 228 231 235 238 244 251 254 244 246 245 249 254 256 255 258 258 258 259
181 187 200 216 221 213 221 207 206 206 211 214 220 227 229 231 233 240 246 247 249 250 251 255 258 263 268 269 270 268 267 266
Height
5805 5811 5814 5815 5816 5826 5822 5824 5827 5829 5835 5841 5849 5855 5861 5866 5868 5871 5873 5876 5880 5883 5885 5888 5890 5893 5892 5893 5895 5896 5896 5897
5796 5797 5801 5805 5815 5813 5813 5814 5818 5822 5829 5836 5846 5853 5857 5860 5864 5868 5872 5874 5876 5878 5880 5884 5888 5891 5890 5891 5892 5892 5892 5893
5784 5783 5795 5801 5803 5804 5805 5808 5815 5818 5824 5831 5839 5848 5852 5857 5861 5864 5868 5870 5873 5874 5877 5879 5882 5886 5887 5888 5889 5889 5889 5889
5774 5779 5784 5789 5793 5793 5797 5809 5811 5814 5820 5826 5832 5839 5845 5853 5855 5859 5864 5868 5868 5870 5872 5874 5876 5880 5883 5884 5886 5886 5886 5886
5759 5767 5770 5771 5780 5786 5793 5797 5797 5804 5814 5825 5828 5833 5837 5841 5846 5852 5856 5862 5865 5866 5868 5869 5871 5873 5877 5878 5881 5882 5882 5883
5741 5753 5758 5762 5770 5774 5781 5781 5793 5792 5809 5819 5824 5826 5831 5835 5839 5842 5847 5852 5857 5860 5862 5865 5866 5869 5871 5874 5875 5876 5878 5879
5725 5736 5743 5750 5759 5765 5768 5776 5779 5794 5798 5811 5817 5821 5823 5826 5831 5835 5839 5843 5849 5853 5856 5859 5861 5863 5866 5868 5869 5871 5872 5874
5710 5717 5727 5737 5747 5754 5759 5765 5769 5784 5785 5799 5810 5814 5816 5820 5822 5826 5831 5836 5839 5843 5848 5851 5856 5858 5861 5863 5864 5866 5867 5870
5692 5702 5711 5719 5738 5743 5749 5755 5762 5772 5785 5791 5801 5806 5810 5811 5814 5819 5822 5826 5829 5833 5838 5843 5849 5854 5854 5857 5859 5858 5862 5863
5673 5688 5694 5707 5724 5729 5734 5744 5752 5760 5774 5780 5786 5796 5800 5803 5807 5809 5813 5817 5822 5826 5830 5835 5840 5844 5848 5849 5851 5852 5854 5855
5652 5667 5684 5690 5703 5715 5725 5736 5742 5747 5759 5771 5777 5785 5789 5795 5797 5801 5805 5809 5812 5817 5821 5825 5830 5835 5838 5838 5840 5844 5847 5849
5638 5646 5663 5678 5688 5701 5713 5720 5731 5736 5747 5759 5766 5770 5780 5785 5790 5794 5797 5800 5803 5808 5813 5817 5821 5824 5826 5829 5833 5836 5839 5843
5621 5625 5643 5659 5674 5684 5696 5717 5726 5730 5738 5746 5753 5761 5769 5775 5781 5785 5789 5791 5794 5797 5802 5806 5810 5813 5816 5819 5823 5831 5833 5835
5603 5606 5620 5649 5661 5674 5687 5697 5710 5721 5731 5739 5745 5752 5757 5762 5768 5776 5781 5785 5787 5789 5791 5795 5799 5803 5806 5810 5815 5816 5819 5822
5587 5599 5611 5636 5653 5666 5676 5686 5697 5711 5721 5729 5736 5743 5749 5753 5757 5765 5771 5775 5777 5779 5783 5785 5788 5791 5794 5796 5799 5803 5807 5811
5571 5591 5603 5615 5635 5657 5668 5680 5689 5697 5710 5718 5726 5732 5738 5743 5748 5753 5759 5765 5767 5770 5773 5775 5778 5781 5784 5787 5790 5793 5795 5797
5554 5579 5595 5606 5623 5648 5661 5674 5683 5691 5699 5706 5713 5720 5726 5732 5738 5743 5748 5752 5758 5762 5764 5765 5767 5770 5773 5776 5778 5781 5783 5786
5550 5575 5585 5602 5615 5637 5657 5668 5676 5684 5690 5695 5702 5709 5715 5722 5728 5733 5739 5743 5747 5750 5752 5754 5756 5758 5760 5762 5765 5767 5769 5772
5536 5551 5570 5589 5609 5624 5644 5660 5668 5673 5679 5686 5692 5699 5706 5712 5718 5723 5728 5732 5734 5737 5740 5742 5744 5746 5748 5751 5752 5753 5756 5758